DEIMOS-1

Last updated on Fri Oct 24 2025 00:02:30 GMT+0000 (Coordinated Universal Time)

1 35681U 09041A 25296.64625510 .00001215 00000+0 18834-3 0 9995 2 35681 97.7146 99.5915 0000779 156.6282 203.4963 14.74835657872015
UTC large
Height (km)
Speed (km/s)
/
Latitude / Longitude
Inclination (degrees)
Orbital Period (minutes)
Azimuth
Elevation
Range (km)
Doppler Factor

Next 0 passes for location: London (51.5072 / 0.1276)

Sorry there are no passes over London.